TimeEST,TemperatureF,Dew PointF,Humidity,Sea Level PressureIn,VisibilityMPH,Wind Direction,Wind SpeedMPH,Gust SpeedMPH,PrecipitationIn,Events,Conditions,WindDirDegrees,DateUTC
12:55 AM,25.3,20.3,81,30.33,10.0,West,9.2,-,0.00,,Overcast,270,2012-12-30 05:55:00
1:55 AM,25.0,19.2,79,30.34,10.0,West,8.1,-,N/A,,Overcast,280,2012-12-30 06:55:00
2:55 AM,24.4,19.0,80,30.36,10.0,West,11.5,-,N/A,,Overcast,270,2012-12-30 07:55:00
3:49 AM,23.0,17.6,80,30.39,10.0,WSW,9.2,-,N/A,,Scattered Clouds,250,2012-12-30 08:49:00
3:55 AM,22.6,18.0,82,30.39,10.0,West,6.9,-,N/A,,Scattered Clouds,260,2012-12-30 08:55:00
4:55 AM,20.5,16.7,85,30.41,10.0,West,5.8,-,N/A,,Clear,260,2012-12-30 09:55:00
5:55 AM,18.9,15.6,87,30.43,10.0,WSW,6.9,-,N/A,,Clear,250,2012-12-30 10:55:00
6:55 AM,17.2,14.4,88,30.44,10.0,Calm,Calm,-,N/A,,Clear,0,2012-12-30 11:55:00
7:55 AM,16.5,14.2,90,30.47,10.0,SSW,3.5,-,N/A,,Clear,210,2012-12-30 12:55:00
8:55 AM,18.1,16.0,91,30.48,10.0,Calm,Calm,-,N/A,,Clear,0,2012-12-30 13:55:00
9:55 AM,24.1,19.0,81,30.49,10.0,Calm,Calm,-,N/A,,Clear,0,2012-12-30 14:55:00
10:55 AM,27.7,17.8,66,30.52,10.0,SW,4.6,-,N/A,,Clear,230,2012-12-30 15:55:00
11:55 AM,28.4,19.9,71,30.52,10.0,SSW,8.1,-,N/A,,Clear,200,2012-12-30 16:55:00
12:55 PM,31.1,20.7,65,30.48,10.0,SW,5.8,-,N/A,,Clear,230,2012-12-30 17:55:00
1:55 PM,31.8,21.0,64,30.44,10.0,Variable,3.5,-,N/A,,Clear,0,2012-12-30 18:55:00
2:55 PM,33.1,22.1,64,30.43,10.0,WSW,4.6,-,N/A,,Mostly Cloudy,240,2012-12-30 19:55:00
3:55 PM,32.7,23.4,68,30.43,10.0,South,5.8,-,N/A,,Mostly Cloudy,170,2012-12-30 20:55:00
4:55 PM,32.5,24.6,73,30.44,10.0,SSW,5.8,-,N/A,,Overcast,200,2012-12-30 21:55:00
5:55 PM,30.2,25.0,81,30.43,10.0,Calm,Calm,-,N/A,,Overcast,0,2012-12-30 22:55:00
6:55 PM,29.1,24.6,83,30.43,10.0,Calm,Calm,-,N/A,,Overcast,0,2012-12-30 23:55:00
7:55 PM,27.9,24.4,87,30.42,10.0,Calm,Calm,-,N/A,,Clear,0,2012-12-31 00:55:00
8:55 PM,27.9,23.9,85,30.41,10.0,Calm,Calm,-,N/A,,Overcast,0,2012-12-31 01:55:00
9:55 PM,27.0,23.9,88,30.40,10.0,Calm,Calm,-,N/A,,Overcast,0,2012-12-31 02:55:00
10:55 PM,26.8,22.6,84,30.41,10.0,Calm,Calm,-,N/A,,Overcast,0,2012-12-31 03:55:00
11:55 PM,27.5,22.5,81,30.37,10.0,SE,3.5,-,N/A,,Overcast,140,2012-12-31 04:55:00